Regional Weather Roundup
Issued by NWS

Home | Current Version | Previous Version | Text Only | Print | Product List | Glossary On
Versions: 1 2 3 4 5 6 7 8 9 10 11 12 13 14 15 16 17 18 19 20 21 22 23 24 25 26 27 28 29 30 31 32 33 34 35 36 37 38 39 40 41 42 43 44 45 46 47 48 49
000
ASUS45 KBOI 221110
RWRID
WEATHER ROUNDUP FOR IDAHO
NATIONAL WEATHER SERVICE BOISE ID
500 AM MDT TUE JUL 22 2014

NOTE: "FAIR" INDICATES FEW OR NO CLOUDS BELOW 12000 FEET
WITH NO SIGNIFICANT WEATHER AND/OR OBSTRUCTIONS TO VISIBILITY

IDZ012-014-221200-
SOUTHWEST IDAHO


CITY           SKY/WX    TMP DP  RH WIND       PRES   REMARKS
BOISE          CLEAR     67  55  65 SE8       30.10R
CALDWELL       CLEAR     63  50  63 SE8       30.10S
MOUNTAIN HOME  PTCLDY    60  58  93 E7        30.10F
$$

IDZ016-017-221200-
SOUTHCENTRAL IDAHO


CITY           SKY/WX    TMP DP  RH WIND       PRES   REMARKS
BURLEY         MOCLDY    58  52  80 CALM      30.18R
JEROME         PTCLDY    57  53  86 N8        30.18S
TWIN FALLS     CLEAR     63  49  60 S10       30.17S
$$

IDZ019>023-221200-
SOUTHEAST IDAHO


CITY           SKY/WX    TMP DP  RH WIND       PRES   REMARKS
IDAHO FALLS    PTCLDY    64  51  62 S9        30.23R
POCATELLO      CLEAR     59  52  77 S9        30.22S
REXBURG        PTCLDY    55  50  83 NE5       30.24R
$$

IDZ006-010-011-018-031-032-221200-
CENTRAL IDAHO MOUNTAINS


CITY           SKY/WX    TMP DP  RH WIND       PRES   REMARKS
MCCALL         CLOUDY    59  53  80 N3        30.18S
STANLEY          N/A     49  46  90 CALM      30.31R
SALMON         CLOUDY    63  52  67 CALM      30.14R
CHALLIS        MOCLDY    61  47  59 W3        30.21R
$$

IDZ002-004-006-007-026-221200-
NORTHERN IDAHO


CITY           SKY/WX    TMP DP  RH WIND       PRES   REMARKS
LEWISTON       CLOUDY    71  46  40 E7        29.98S
LOWELL           N/A     61  52  72 NW3       30.06S
COEUR D`ALENE  CLOUDY    61  48  63 MISG      30.04F
MULLAN PASS    CLOUDY    54  33  45 S7        30.22R
$$



USA.gov is the U.S. government's official web portal to all federal, state and local government web resources and services.